Powrót do katalogu

GAOFEN 3 DEB

AktywnySSO
NORAD 42680·DEBRIS·🇨🇳 China

Wystrzelony Aug 9, 2016 z Taiyuan Satellite Launch Center

Loading…

Następne Przeloty (najbliższe 24 godziny)

TLE

ŚwieżeSource: Space-Track

Epoka: Sep 14, 2026, 07:45 UTC

1 42680U 16049E   26257.32358547  .00001021  00000-0  26263-3 0  9995
2 42680  98.4245 273.2550 0015525 190.7616 169.3249 14.52231024529280

Śledź GAOFEN 3 DEB w czasie rzeczywistym z AllMySat

Download on the App Store